Location: Puerto Pe�asco
(31.3170°N, 113.5330°W)
Time: 19:05:16
(UTC-06:00)

OTV 5 (USA 277) - Visible Passes

Search period start: 23 March 2019 00:00
Search period end: 02 April 2019 00:00
Orbit: 315 x 320 km, 54.5° (Epoch: 14 March)

Date Brightness Start Highest point End Pass type
(mag) Time Alt. Az. Time Alt. Az. Time Alt. Az.
29 Mar ? 06:12:35 10° S 06:14:28 17° SE 06:16:22 10° E visible
30 Mar ? 06:27:20 20° SSW 06:29:02 70° SE 06:31:43 10° NE visible
31 Mar ? 06:42:07 16° W 06:43:44 27° NW 06:46:08 10° NNE visible
01 Apr ? 05:25:51 17° ENE 05:25:51 17° ENE 05:26:40 10° ENE visible
01 Apr ? 06:58:10 10° NW 06:58:37 10° NW 06:59:05 10° NNW visible
